User: anonymous   Login
Location: Unspecified
(0.0000°N, 0.0000°E)
Time: 20:15:00
(UTC+01:00)
Language:

Haruka - Orbit

View from above orbital plane
View from above orbital plane
View from above satellite
View from above satellite

Ground track
Ground track

The orbit data is extracted from the following two-line orbital elements,

1 24720U 97005A   19050.71326167  .00000002  00000-0 -85092-4 0  9995
2 24720  31.1172 189.6687 6007063  84.1292   8.4424  3.83031302307077
Epoch (UTC): 19 February 2019 17:07:05
Eccentricity: 0.6007063
inclination: 31.1172°
perigee height: 511 km
apogee height: 21241 km
right ascension of ascending node: 189.6687°
argument of perigee: 84.1292°
revolutions per day: 3.83031302
mean anomaly at epoch: 8.4424°
orbit number at epoch: 30707

The dashed part of the orbit path shows where the satellite is in the earth's shadow,  

DLR